Marfa, TX

11:48 PM CDT on August 30, 2016 (GMT -0500)
Marfa Municipal

Weather History for KMRF - January, 2013

Change the Weather History Date:

Sunday, January 27, 2013

  Actual Average Record
Temperature  
Mean Temperature 54 °F -  
Max Temperature 71 °F 57 °F 71 °F (2013)
Min Temperature 37 °F 27 °F 15 °F (2011)
Degree Days  
Heating Degree Days 11    
Growing Degree Days 4 (Base 50)    
Moisture  
Dew Point 36 °F    
Average Humidity 53    
Maximum Humidity 93    
Minimum Humidity 25    
Precipitation  
Precipitation 0.00 in - - ()
Sea Level Pressure  
Sea Level Pressure 30.07 in    
Wind  
Wind Speed 7 mph (SSW)    
Max Wind Speed 20 mph    
Max Gust Speed 26 mph    
Visibility 10 miles    
Events      
Averages and records for this station are not official NWS values.
T = Trace of Precipitation, MM = Missing Value Source: NWS Daily Summary

Daily Weather History Graph

Daily Weather History Graph

Search for Another Location

Airport or City:

Trip Planner

Search our weather history database for the weather conditions in past years. The results will help you decide how hot, cold, wet, or windy it might be!

Date:

Astronomy

Jan. 27, 2013 Rise Set
Actual Time 7:49 AM CST 6:28 PM CST
Civil Twilight 7:24 AM CST 6:54 PM CST
Nautical Twilight 6:55 AM CST 7:22 PM CST
Astronomical Twilight 6:26 AM CST 7:51 PM CST
Moon 7:17 PM CST (1/27) 7:49 AM CST (1/27)
Length of Visible Light 11h 29m
Length of Day
10h 39m
Full, 100% of the Moon is Illuminated
Jan 27
Full
Feb 3
Last Quarter
Feb 10
New
Feb 17
First Quarter
Feb 25
Full

Hourly Weather History & Observations

Time (CST) Temp. Windchill Dew Point Humidity Pressure Visibility Wind Dir Wind Speed Gust Speed Precip Events Conditions
12:15 AM 57.2 °F - 41.0 °F 55% 30.07 in 10.0 mi South 6.9 mph - N/A   Overcast
12:35 AM 55.4 °F - 42.8 °F 63% 30.07 in 10.0 mi SSW 4.6 mph - N/A   Overcast
12:55 AM 55.4 °F - 44.6 °F 67% 30.07 in 10.0 mi Calm Calm - N/A   Overcast
1:15 AM 55.4 °F - 42.8 °F 63% 30.07 in 10.0 mi West 3.5 mph - N/A   Overcast
1:35 AM 53.6 °F - 42.8 °F 67% 30.07 in 10.0 mi West 5.8 mph - N/A   Overcast
1:55 AM 53.6 °F - 41.0 °F 62% 30.08 in 10.0 mi WNW 4.6 mph - N/A   Overcast
2:15 AM 55.4 °F - 41.0 °F 58% 30.07 in 10.0 mi WSW 6.9 mph - N/A   Overcast
2:35 AM 59.0 °F - 41.0 °F 51% 30.07 in 10.0 mi South 12.7 mph 17.3 mph N/A   Overcast
2:55 AM 55.4 °F - 41.0 °F 58% 30.07 in 10.0 mi SSW 9.2 mph - N/A   Overcast
3:15 AM 57.2 °F - 39.2 °F 51% 30.07 in 10.0 mi SW 9.2 mph - N/A   Mostly Cloudy
3:35 AM 53.6 °F - 39.2 °F 58% 30.07 in 10.0 mi SSW 8.1 mph - N/A   Mostly Cloudy
3:55 AM 51.8 °F - 39.2 °F 62% 30.08 in 10.0 mi SSW 8.1 mph - N/A   Mostly Cloudy
4:15 AM 48.2 °F - 39.2 °F 71% 30.08 in 10.0 mi WSW 9.2 mph - N/A   Scattered Clouds
4:35 AM 48.2 °F - 37.4 °F 66% 30.07 in 10.0 mi WSW 8.1 mph - N/A   Clear
4:55 AM 46.4 °F 43.5 °F 37.4 °F 71% 30.07 in 10.0 mi West 5.8 mph - N/A   Clear
5:15 AM 46.4 °F 43.5 °F 37.4 °F 71% 30.07 in 10.0 mi NE 5.8 mph - N/A   Clear
5:35 AM 44.6 °F 43.1 °F 37.4 °F 76% 30.07 in 10.0 mi NE 3.5 mph - N/A   Clear
5:55 AM 42.8 °F 41.1 °F 35.6 °F 76% 30.08 in 10.0 mi ENE 3.5 mph - N/A   Clear
6:15 AM 42.8 °F 41.1 °F 35.6 °F 76% 30.09 in 10.0 mi NE 3.5 mph - N/A   Clear
6:35 AM 39.2 °F 37.0 °F 35.6 °F 87% 30.09 in 10.0 mi ENE 3.5 mph - N/A   Clear
6:55 AM 41.0 °F 39.0 °F 35.6 °F 81% 30.09 in 10.0 mi East 3.5 mph - N/A   Clear
7:15 AM 39.2 °F - 35.6 °F 87% 30.10 in 10.0 mi Calm Calm - N/A   Clear
7:35 AM 37.4 °F 34.9 °F 33.8 °F 87% 30.11 in 10.0 mi NE 3.5 mph - N/A   Clear
7:55 AM 37.4 °F - 33.8 °F 87% 30.11 in 10.0 mi Calm Calm - N/A   Clear
8:15 AM 37.4 °F 34.9 °F 35.6 °F 93% 30.10 in 10.0 mi NE 3.5 mph - N/A   Clear
8:35 AM 41.0 °F 39.0 °F 37.4 °F 87% 30.11 in 10.0 mi NNE 3.5 mph - N/A   Clear
8:55 AM 46.4 °F - 39.2 °F 76% 30.11 in 10.0 mi Calm Calm - N/A   Clear
9:15 AM 48.2 °F - 41.0 °F 76% 30.11 in 10.0 mi Calm Calm - N/A   Clear
9:35 AM 51.8 °F - 41.0 °F 67% 30.12 in 10.0 mi Calm Calm - N/A   Clear
9:55 AM 53.6 °F - 41.0 °F 62% 30.13 in 10.0 mi SSE 3.5 mph - N/A   Clear
10:15 AM 55.4 °F - 41.0 °F 58% 30.13 in 10.0 mi SE 3.5 mph - N/A   Clear
10:35 AM 59.0 °F - 42.8 °F 55% 30.13 in 10.0 mi South 4.6 mph - N/A   Clear
10:55 AM 60.8 °F - 44.6 °F 55% 30.13 in 10.0 mi SSW 4.6 mph - N/A   Clear
11:15 AM 62.6 °F - 44.6 °F 52% 30.13 in 10.0 mi South 5.8 mph - N/A   Clear
11:35 AM 64.4 °F - 42.8 °F 45% 30.13 in 10.0 mi South 6.9 mph - N/A   Clear
11:55 AM 64.4 °F - 42.8 °F 45% 30.12 in 10.0 mi SSE 5.8 mph - N/A   Clear
12:15 PM 66.2 °F - 41.0 °F 40% 30.12 in 10.0 mi SW 10.4 mph 16.1 mph N/A   Scattered Clouds
12:35 PM 68.0 °F - 39.2 °F 35% 30.10 in 10.0 mi SW 15.0 mph 20.7 mph N/A   Scattered Clouds
12:55 PM 69.8 °F - 33.8 °F 27% 30.09 in 10.0 mi SW 19.6 mph 24.2 mph N/A   Partly Cloudy
1:15 PM 69.8 °F - 33.8 °F 27% 30.08 in 10.0 mi WSW 16.1 mph 23.0 mph N/A   Clear
1:35 PM 69.8 °F - 33.8 °F 27% 30.07 in 10.0 mi WSW 19.6 mph 23.0 mph N/A   Clear
1:55 PM 69.8 °F - 33.8 °F 27% 30.06 in 10.0 mi SW 13.8 mph 23.0 mph N/A   Clear
2:15 PM 69.8 °F - 32.0 °F 25% 30.05 in 10.0 mi SSW 16.1 mph 26.5 mph N/A   Clear
2:35 PM 69.8 °F - 33.8 °F 27% 30.05 in 10.0 mi WSW 16.1 mph - N/A   Clear
2:55 PM 69.8 °F - 33.8 °F 27% 30.04 in 10.0 mi SSW 11.5 mph - N/A   Clear
3:15 PM 69.8 °F - 33.8 °F 27% 30.05 in 10.0 mi WSW 16.1 mph 24.2 mph N/A   Clear
3:35 PM 71.6 °F - 35.6 °F 27% 30.04 in 10.0 mi SSW 15.0 mph 19.6 mph N/A   Clear
3:55 PM 69.8 °F - 35.6 °F 28% 30.04 in 10.0 mi WSW 16.1 mph - N/A   Clear
4:15 PM 68.0 °F - 35.6 °F 30% 30.04 in 10.0 mi SSW 15.0 mph 20.7 mph N/A   Clear
4:35 PM 69.8 °F - 35.6 °F 28% 30.04 in 10.0 mi SW 18.4 mph - N/A   Clear
4:55 PM 68.0 °F - 35.6 °F 30% 30.03 in 10.0 mi WSW 11.5 mph - N/A   Clear
5:15 PM 69.8 °F - 35.6 °F 28% 30.04 in 10.0 mi SSW 18.4 mph 23.0 mph N/A   Scattered Clouds
5:35 PM 68.0 °F - 33.8 °F 28% 30.04 in 10.0 mi SSW 12.7 mph - N/A   Partly Cloudy
5:55 PM 66.2 °F - 33.8 °F 30% 30.04 in 10.0 mi South 12.7 mph 17.3 mph N/A   Clear
6:15 PM 64.4 °F - 33.8 °F 32% 30.05 in 10.0 mi South 9.2 mph - N/A   Clear
6:35 PM 62.6 °F - 33.8 °F 34% 30.05 in 10.0 mi South 8.1 mph - N/A   Clear
6:55 PM 60.8 °F - 33.8 °F 36% 30.05 in 10.0 mi South 4.6 mph - N/A   Clear
7:15 PM 57.2 °F - 32.0 °F 38% 30.06 in 10.0 mi SSE 6.9 mph - N/A   Clear
7:35 PM 55.4 °F - 30.2 °F 38% 30.06 in 10.0 mi SSE 5.8 mph - N/A   Clear
7:55 PM 57.2 °F - 30.2 °F 36% 30.06 in 10.0 mi South 5.8 mph - N/A   Clear
8:15 PM 53.6 °F - 30.2 °F 41% 30.07 in 10.0 mi SE 3.5 mph - N/A   Clear
8:35 PM 48.2 °F - 30.2 °F 50% 30.06 in 10.0 mi East 3.5 mph - N/A   Clear
8:55 PM 48.2 °F - 30.2 °F 50% 30.06 in 10.0 mi ESE 5.8 mph - N/A   Clear
9:15 PM 51.8 °F - 30.2 °F 44% 30.06 in 10.0 mi East 4.6 mph - N/A   Clear
9:35 PM 44.6 °F 41.4 °F 30.2 °F 57% 30.05 in 10.0 mi North 5.8 mph - N/A   Clear
9:55 PM 44.6 °F 43.1 °F 30.2 °F 57% 30.05 in 10.0 mi NNE 3.5 mph - N/A   Clear
10:15 PM 42.8 °F 41.1 °F 30.2 °F 61% 30.05 in 10.0 mi NNE 3.5 mph - N/A   Clear
10:35 PM 42.8 °F 40.1 °F 28.4 °F 57% 30.04 in 10.0 mi North 4.6 mph - N/A   Clear
10:55 PM 42.8 °F - 30.2 °F 61% 30.04 in 10.0 mi Calm Calm - N/A   Clear
11:15 PM 42.8 °F 41.1 °F 30.2 °F 61% 30.04 in 10.0 mi NNW 3.5 mph - N/A   Clear
11:35 PM 42.8 °F 40.1 °F 30.2 °F 61% 30.05 in 10.0 mi NW 4.6 mph - N/A   Clear
11:55 PM 41.0 °F 36.4 °F 30.2 °F 65% 30.05 in 10.0 mi NW 6.9 mph - N/A   Clear